Regional Weather Roundup
Issued by NWS

Home | Current Version | Previous Version | Text Only | Print | Product List | Glossary On
Versions: 1 2 3 4 5 6 7 8 9 10 11 12 13 14 15 16 17 18 19 20 21 22 23 24 25 26 27 28 29 30 31 32 33 34 35 36 37 38 39 40 41 42 43 44 45 46 47 48 49 50
968
ASUS43 KLSX 251807
RWRMO

WEATHER SUMMARY FOR MISSOURI
NATIONAL WEATHER SERVICE SPRINGFIELD MO
100 PM CDT SUN SEP 25 2016

NOTE: "FAIR" INDICATES FEW OR NO CLOUDS BELOW 12,000 FEET WITH NO
       SIGNIFICANT WEATHER AND/OR OBSTRUCTIONS TO VISIBILITY.
       CURRENT SKY AND/OR WEATHER CONDITIONS ARE NOT AVAILABLE FOR
       CHILLICOTHE AND FARMINGTON.

MOZ001>031-035>038-043-044-053-054-251900-
...NORTHERN AND WESTERN MISSOURI...

CITY           SKY/WX    TMP DP  RH WIND       PRES   REMARKS
KANSAS CTY INT CLOUDY    62  54  74 NW7       30.16S
6HR MIN TEMP:  60; 6HR MAX TEMP:  68; 6HR PCP:  0.10;

KANSAS C DTWN  CLOUDY    63  54  72 N8        30.15R
6HR MIN TEMP:  63; 6HR MAX TEMP:  71; 6HR PCP:  0.12;

LEE`S SUMMIT   CLOUDY    63  59  87 N9        30.14S
6HR MIN TEMP:  63; 6HR MAX TEMP:  69; 6HR PCP:  0.74;

ST JOSEPH      CLOUDY    63  56  78 NW5       30.15S
6HR MIN TEMP:  59; 6HR MAX TEMP:  69; 6HR PCP:  0.10;

CHILLICOTHE      N/A     69  60  73 W7        30.12S
6HR MIN TEMP:  68; 6HR MAX TEMP:  73;

KIRKSVILLE     LGT RAIN  71  66  84 NW9       30.08F
6HR MIN TEMP:  69; 6HR MAX TEMP:  77; 6HR PCP: TRACE;


$$
MOZ066>068-077>081-088>096-101>105-251900-
...SOUTHWEST MISSOURI...

CITY           SKY/WX    TMP DP  RH WIND       PRES   REMARKS
SPRINGFIELD    PTSUNNY   81  69  67 NW12      30.09S
6HR MIN TEMP:  67; 6HR MAX TEMP:  86;

JOPLIN         CLOUDY    78  68  71 N7        30.11F
6HR MIN TEMP:  69; 6HR MAX TEMP:  78;

BRANSON        MOSUNNY   84  66  54 W5        30.10F

$$
MOZ032>034-039>042-045>050-055>058-069>072-251900-
...CENTRAL MISSOURI...

CITY           SKY/WX    TMP DP  RH WIND       PRES   REMARKS
COLUMBIA       CLOUDY    79  67  66 NW13      30.09S
6HR MIN TEMP:  69; 6HR MAX TEMP:  82;

JEFFERSON CITY CLOUDY    82  66  58 NW12      30.07S
6HR MIN TEMP:  68; 6HR MAX TEMP:  85;

ROLLA          MOSUNNY   86  68  54 W12       30.07F
6HR MIN TEMP:  67; 6HR MAX TEMP:  86;

SEDALIA        CLOUDY    78  65  63 N9        30.11F
6HR MIN TEMP:  68; 6HR MAX TEMP:  79;

OSAGE BEACH    PTSUNNY   80  69  69 NW9G17    30.09S

$$
MOZ051-052-059>065-251900-
...EAST CENTRAL MISSOURI...

CITY           SKY/WX    TMP DP  RH WIND       PRES   REMARKS
ST LOUIS INTL  PTSUNNY   90  67  46 SW9G21    30.05F HX  93
6HR MIN TEMP:  74; 6HR MAX TEMP:  91;

SPIRIT OF STL  CLOUDY    89  69  51 SW13      30.03F HX  93
6HR MIN TEMP:  66; 6HR MAX TEMP:  89;

ST CHARLES     CLOUDY    87  69  54 W12       30.03S HX  91
6HR MIN TEMP:  68; 6HR MAX TEMP:  89;


$$
MOZ072>076-082>087-097>100-106>115-251900-
...SOUTH CENTRAL AND SOUTHEAST MISSOURI...

CITY           SKY/WX    TMP DP  RH WIND       PRES   REMARKS
CAPE GIRARDEAU MOSUNNY   86  69  56 SW5       30.05F HX  90
6HR MIN TEMP:  66; 6HR MAX TEMP:  87;

FARMINGTON     MOSUNNY   86  70  58 VRB6      30.08F HX  90
6HR MIN TEMP:  66; 6HR MAX TEMP:  87;

WEST PLAINS    MOSUNNY   85  67  54 W7        30.11F
6HR MIN TEMP:  66; 6HR MAX TEMP:  86;


$$



USA.gov is the U.S. government's official web portal to all federal, state and local government web resources and services.